Starlink 30822

operational
NORAD ID: 58193 Int'l Des: 2023-167 Owner: SPXS Country: US Constellation: starlink
LEOCIRCULAR

About Starlink 30822

Description loading...

Live Position

Loading 3D Globe...

Upcoming Passes

Altitude History

Altitude vs Time

uPlot chart will show altitude changes over time

Two-Line Element Set

1 58193U 23167U 25302.85313524 .00001605 00000-0 13387-3 0 9995
2 58193 43.0032 136.8898 0001202 265.4090 94.6615 15.02538956111271
Epoch: Oct 29, 2025 • Age: 25 hours

Current Status

Altitude 568.4 km
Velocity 7.58 km/s
Sub-Earth Point -35.12°S, 1.49°W
Launch Date Oct 30, 2023
Age 1.9 years
Type internet

Technical Details

Classification Payload
Mass 730.00 kg
Dry Mass 700.00 kg
Total Mass 730.00 kg
Length 0.30 m
Diameter 4.10 m
Span 29.00 m
Shape Box + pan
Manufacturer SPXS
Bus Type Starlink V2M
Phase Status In Orbit
Owner/State SPXS/US

Large Constellations

Loading constellations...